This is the latest recevied weather packets stored in our database for station/object SQ5DN-4. If no packets are shown the sender has not sent any weather packets the latest 10 day(s).
| Time | Temp. | Humidity | Pressure | Rain* | Wind** | Luminosity | Snow |
|---|---|---|---|---|---|---|---|
| 1777767487 | 9.44° C | 66% | 1014 hPa | - | - | - | - |
| 1777766967 | 10° C | 63% | 1014 hPa | - | - | - | - |
| 1777766412 | 10° C | 64% | 1014 hPa | - | - | - | - |
| 1777765876 | 9.44° C | 65% | 1014 hPa | - | - | - | - |
| 1777765307 | 10.56° C | 61% | 1014 hPa | - | - | - | - |
| 1777764796 | 11.11° C | 61% | 1014 hPa | - | - | - | - |
| 1777764232 | 11.11° C | 61% | 1014 hPa | - | - | - | - |
| 1777763752 | 11.11° C | 60% | 1014 hPa | - | - | - | - |
| 1777763154 | 11.11° C | 60% | 1014 hPa | - | - | - | - |
| 1777762632 | 11.11° C | 61% | 1014 hPa | - | - | - | - |
| 1777762062 | 11.67° C | 59% | 1014 hPa | - | - | - | - |
| 1777761512 | 12.22° C | 57% | 1015 hPa | - | - | - | - |
| 1777760942 | 12.22° C | 57% | 1015 hPa | - | - | - | - |
| 1777760432 | 12.22° C | 57% | 1015 hPa | - | - | - | - |
| 1777759847 | 12.22° C | 58% | 1015 hPa | - | - | - | - |
| 1777759256 | 10.56° C | 61% | 1015 hPa | - | - | - | - |
| 1777758752 | 11.11° C | 60% | 1015 hPa | - | - | - | - |
| 1777758221 | 11.11° C | 60% | 1015 hPa | - | - | - | - |
| 1777757647 | 11.67° C | 58% | 1015 hPa | - | - | - | - |
| 1777757067 | 13.33° C | 53% | 1015 hPa | - | - | - | - |
| 1777756522 | 13.33° C | 52% | 1015 hPa | - | - | - | - |
| 1777755947 | 13.89° C | 51% | 1015 hPa | - | - | - | - |
| 1777755362 | 14.44° C | 49% | 1015 hPa | - | - | - | - |
| 1777754786 | 14.44° C | 50% | 1015 hPa | - | - | - | - |
| 1777754197 | 15° C | 48% | 1015 hPa | - | - | - | - |
* Rain since midnight (hover to see other rain measurements)
** Current wind speed in m/s (hover to see current wind gust speed)